Location: Allaines
(49.9632°N, 2.9458°E)
Time: 10:16:00
(UTC+00:00)

Cosmos 1980 Rocket - Pass Details

Date: 09 April 2020
Orbit: 829 x 850 km, 71.0° (Epoch: 25 May)

Event Time Altitude Azimuth Distance (km) Brightness Sun altitude
Rises 23:20:02 0° 320° (NW) 3,391 6.1 -31.6°
Reaches altitude 10° 23:23:05 10° 304° (NW) 2,455 5.1 -31.7°
Enters shadow 23:25:53 19° 275° (W) 1,922 4.1 -31.8°
